Regional Weather Roundup
Issued by NWS

Home | Current Version | Previous Version | Graphics & Text | Print | Product List | Glossary On
Versions: 1 2 3 4 5 6 7 8 9 10 11 12 13 14 15 16 17 18 19 20 21 22 23 24 25 26 27 28 29 30 31 32 33 34 35 36 37 38 39 40 41 42 43 44 45 46 47 48 49 50
911
ASUS43 KLMK 260302
RWRKY
KENTUCKY REGIONAL WEATHER ROUNDUP
NATIONAL WEATHER SERVICE LOUISVILLE KY
1100 PM EDT THU AUG 25 2016

NOTE "FAIR" INDICATES FEW OR NO CLOUDS BELOW 12,000 FEET
WITH NO SIGNIFICANT WEATHER AND/OR OBSTRUCTIONS TO VISIBILITY.

KYZ001>023-026-027-061>063-070>075-260400-
WESTERN AND SOUTH CENTRAL KENTUCKY

CITY           SKY/WX    TMP DP  RH WIND       PRES   REMARKS
PADUCAH        PTCLDY    78  74  87 S3        30.06R
HENDERSON      PTCLDY    75  70  83 S5        30.05F
OWENSBORO      PTCLDY    79  75  87 CALM      30.08R
HOPKINSVILLE   CLEAR     80  75  87 SW3       30.08S
BOWLING GREEN  CLEAR     80  75  84 CALM      30.09S
GLASGOW        CLEAR     75  75 100 CALM      30.10F
$$

KYZ024-025-028>034-038-045-046-053-260400-
NORTH CENTRAL KENTUCKY

CITY           SKY/WX    TMP DP  RH WIND       PRES   REMARKS
LOUISVILLE/SDF PTCLDY    81  71  71 SW3       30.07S
LOUISVILLE/LOU PTCLDY    81  70  69 CALM      30.08S
FORT KNOX      CLEAR     74  71  89 CALM      30.08S
$$

KYZ035>037-039>044-047>052-055>060-089>105-260400-
NORTHEAST KENTUCKY

CITY           SKY/WX    TMP DP  RH WIND       PRES   REMARKS
LEXINGTON      PTCLDY    77  72  84 SW6       30.10F
COVINGTON      CLEAR     79  73  82 SW5       30.08S
FRANKFORT      PTCLDY    75  69  81 SW3       30.08S
$$

KYZ054-064>069-076>088-106>120-260400-
SOUTHEAST KENTUCKY

CITY           SKY/WX    TMP DP  RH WIND       PRES   REMARKS
JACKSON        CLEAR     77  72  84 CALM      30.13S
LONDON         CLOUDY    76  72  87 CALM      30.13S
SOMERSET       PTCLDY    73  73 100 CALM      30.13S
MIDDLESBORO    CLEAR     73  73  99 CALM      30.15R
MONTICELLO     PTCLDY   N/A N/A N/A W7        30.14R
$$





USA.gov is the U.S. government's official web portal to all federal, state and local government web resources and services.